AFR632 MDJB-TNCM

Flight info

Callsign AFR632
Flight time 1h 3m
Altitude 37000
Route DHG DCT CDO UT15 MELLA G633 MAZ DCT STT B520 PJM
Aircraft A20N/M-SDE2E3FGHIRWXY/LB1

Departure

Time 2026-04-16 23:22
Airport La Isabela International Airport (MDJB)

Arrival

Time 2026-04-17 00:25
Airport Princess Juliana International Airport (TNCM)
Time Latitude Longitude Altitude Speed Heading
2026-04-16 23:01 18.57615 -69.98284 71 ft 0 kts 98°
2026-04-16 23:15 18.57615 -69.98314 66 ft 2 kts 34°
2026-04-16 23:15 18.57608 -69.98318 62 ft 0 kts
2026-04-16 23:18 18.57625 -69.98317 66 ft 8 kts
2026-04-16 23:18 18.57672 -69.98324 70 ft 4 kts 319°
2026-04-16 23:19 18.57693 -69.98345 65 ft 4 kts 338°
2026-04-16 23:19 18.57719 -69.98343 68 ft 7 kts 10°
2026-04-16 23:19 18.57790 -69.98333 74 ft 11 kts
2026-04-16 23:19 18.57851 -69.98327 76 ft 7 kts
2026-04-16 23:20 18.57890 -69.98323 71 ft 5 kts
2026-04-16 23:20 18.57944 -69.98335 85 ft 8 kts 312°
2026-04-16 23:20 18.57956 -69.98394 80 ft 12 kts 276°
2026-04-16 23:20 18.57955 -69.98469 83 ft 8 kts 250°
2026-04-16 23:21 18.57935 -69.98485 85 ft 0 kts 187°
2026-04-16 23:21 18.57873 -69.98493 82 ft 40 kts 187°
2026-04-16 23:21 18.57309 -69.98560 55 ft 119 kts 186°
2026-04-16 23:21 18.56314 -69.98670 367 ft 150 kts 185°
2026-04-16 23:22 18.55276 -69.98769 1139 ft 152 kts 184°
2026-04-16 23:22 18.54191 -69.98892 1795 ft 161 kts 183°
2026-04-16 23:22 18.53069 -69.98683 2351 ft 171 kts 144°
2026-04-16 23:22 18.52418 -69.97651 2772 ft 179 kts 100°
2026-04-16 23:23 18.52171 -69.96311 3121 ft 194 kts 103°
2026-04-16 23:23 18.51815 -69.94900 3534 ft 204 kts 105°
2026-04-16 23:23 18.51396 -69.93437 3996 ft 213 kts 107°
2026-04-16 23:23 18.50938 -69.91890 4311 ft 236 kts 107°
2026-04-16 23:24 18.50409 -69.90114 4339 ft 260 kts 107°
2026-04-16 23:24 18.49855 -69.88260 4826 ft 268 kts 107°
2026-04-16 23:24 18.49301 -69.86412 5752 ft 268 kts 108°
2026-04-16 23:24 18.48737 -69.84532 6579 ft 271 kts 108°
2026-04-16 23:25 18.48166 -69.82620 7332 ft 275 kts 108°
2026-04-16 23:25 18.47589 -69.80691 8113 ft 278 kts 108°
2026-04-16 23:25 18.47003 -69.78733 8875 ft 282 kts 108°
2026-04-16 23:25 18.46407 -69.76742 9621 ft 286 kts 108°
2026-04-16 23:26 18.45805 -69.74726 10264 ft 295 kts 108°
2026-04-16 23:26 18.45167 -69.72584 10471 ft 318 kts 108°
2026-04-16 23:26 18.44486 -69.70302 10845 ft 332 kts 108°
2026-04-16 23:26 18.43784 -69.67962 11450 ft 338 kts 108°
2026-04-16 23:27 18.43240 -69.65533 12070 ft 343 kts 98°
2026-04-16 23:27 18.42904 -69.63032 12736 ft 347 kts 99°
2026-04-16 23:27 18.42568 -69.60499 13383 ft 351 kts 98°
2026-04-16 23:27 18.42228 -69.57940 13971 ft 355 kts 98°
2026-04-16 23:28 18.41884 -69.55350 14514 ft 359 kts 98°
2026-04-16 23:28 18.41536 -69.52730 15059 ft 363 kts 99°
2026-04-16 23:28 18.41180 -69.50086 15608 ft 366 kts 99°
2026-04-16 23:28 18.40818 -69.47416 16154 ft 370 kts 98°
2026-04-16 23:29 18.40449 -69.44711 16680 ft 374 kts 98°
2026-04-16 23:29 18.40082 -69.42020 17205 ft 378 kts 99°
2026-04-16 23:29 18.39705 -69.39272 17731 ft 381 kts 98°
2026-04-16 23:29 18.39326 -69.36497 18247 ft 385 kts 99°
2026-04-16 23:30 18.38944 -69.33688 18679 ft 389 kts 99°
2026-04-16 23:30 18.38562 -69.30858 19143 ft 391 kts 99°
2026-04-16 23:30 18.38181 -69.28016 19629 ft 394 kts 99°
2026-04-16 23:30 18.37797 -69.25155 20097 ft 396 kts 99°
2026-04-16 23:31 18.37406 -69.22279 20566 ft 398 kts 99°
2026-04-16 23:31 18.37009 -69.19383 21027 ft 400 kts 99°
2026-04-16 23:31 18.36607 -69.16472 21461 ft 403 kts 99°
2026-04-16 23:31 18.36203 -69.13543 21902 ft 405 kts 99°
2026-04-16 23:32 18.35795 -69.10593 22350 ft 408 kts 99°
2026-04-16 23:32 18.35387 -69.07632 22789 ft 410 kts 99°
2026-04-16 23:32 18.34977 -69.04649 23211 ft 413 kts 99°
2026-04-16 23:32 18.34564 -69.01651 23614 ft 415 kts 99°
2026-04-16 23:33 18.34148 -68.98632 23967 ft 418 kts 99°
2026-04-16 23:33 18.33731 -68.95595 24316 ft 420 kts 99°
2026-04-16 23:33 18.33313 -68.92550 24666 ft 422 kts 99°
2026-04-16 23:33 18.32890 -68.89484 25015 ft 424 kts 99°
2026-04-16 23:34 18.32482 -68.86554 25336 ft 426 kts 99°
2026-04-16 23:34 18.32049 -68.83458 25627 ft 430 kts 99°
2026-04-16 23:34 18.31616 -68.80364 25944 ft 432 kts 99°
2026-04-16 23:34 18.31182 -68.77227 26260 ft 435 kts 99°
2026-04-16 23:35 18.30749 -68.74064 26589 ft 437 kts 99°
2026-04-16 23:35 18.30315 -68.70899 26929 ft 439 kts 100°
2026-04-16 23:35 18.29876 -68.67708 27241 ft 441 kts 99°
2026-04-16 23:35 18.29431 -68.64514 27552 ft 443 kts 99°
2026-04-16 23:36 18.28977 -68.61299 27893 ft 445 kts 99°
2026-04-16 23:36 18.28517 -68.58063 28203 ft 447 kts 99°
2026-04-16 23:36 18.28057 -68.54817 28511 ft 449 kts 100°
2026-04-16 23:36 18.27601 -68.51559 28827 ft 452 kts 99°
2026-04-16 23:37 18.27148 -68.48320 29056 ft 455 kts 99°
2026-04-16 23:37 18.26684 -68.45014 29336 ft 458 kts 99°
2026-04-16 23:37 18.26217 -68.41689 29643 ft 460 kts 100°
2026-04-16 23:37 18.25743 -68.38355 29922 ft 462 kts 100°
2026-04-16 23:38 18.25252 -68.35011 30172 ft 464 kts 99°
2026-04-16 23:38 18.24749 -68.31653 30403 ft 465 kts 100°
2026-04-16 23:38 18.24242 -68.28286 30624 ft 467 kts 100°
2026-04-16 23:38 18.23733 -68.24901 30849 ft 469 kts 100°
2026-04-16 23:39 18.23222 -68.21497 31083 ft 470 kts 100°
2026-04-16 23:39 18.22713 -68.18107 31394 ft 470 kts 100°
2026-04-16 23:39 18.22202 -68.14705 31651 ft 471 kts 100°
2026-04-16 23:39 18.21694 -68.11301 31931 ft 471 kts 100°
2026-04-16 23:40 18.21189 -68.07902 32227 ft 471 kts 100°
2026-04-16 23:40 18.20678 -68.04499 32525 ft 471 kts 101°
2026-04-16 23:40 18.20210 -68.01092 32814 ft 471 kts 96°
2026-04-16 23:40 18.20155 -67.97646 33113 ft 473 kts 87°
2026-04-16 23:41 18.20395 -67.94192 33402 ft 473 kts 87°
2026-04-16 23:41 18.20638 -67.90739 33702 ft 473 kts 87°
2026-04-16 23:41 18.20878 -67.87297 33998 ft 472 kts 87°
2026-04-16 23:41 18.21114 -67.83851 34260 ft 472 kts 87°
2026-04-16 23:42 18.21345 -67.80407 34491 ft 472 kts 87°
2026-04-16 23:42 18.21574 -67.76955 34714 ft 473 kts 87°
2026-04-16 23:42 18.21802 -67.73505 34931 ft 473 kts 87°
2026-04-16 23:42 18.22032 -67.70052 35146 ft 473 kts 87°
2026-04-16 23:43 18.22260 -67.66648 35354 ft 473 kts 87°
2026-04-16 23:43 18.22492 -67.63192 35556 ft 474 kts 87°
2026-04-16 23:43 18.22724 -67.59733 35756 ft 474 kts 87°
2026-04-16 23:43 18.22954 -67.56272 35950 ft 474 kts 87°
2026-04-16 23:44 18.23184 -67.52810 36125 ft 475 kts 88°
2026-04-16 23:44 18.23414 -67.49333 36253 ft 476 kts 88°
2026-04-16 23:44 18.23643 -67.45839 36410 ft 477 kts 88°
2026-04-16 23:44 18.23874 -67.42352 36581 ft 478 kts 88°
2026-04-16 23:45 18.24103 -67.38906 36748 ft 478 kts 88°
2026-04-16 23:45 18.24337 -67.35376 36921 ft 478 kts 88°
2026-04-16 23:45 18.24565 -67.31881 37010 ft 478 kts 88°
2026-04-16 23:46 18.25015 -67.24951 37021 ft 477 kts 88°
2026-04-16 23:46 18.25457 -67.17963 37021 ft 478 kts 88°
2026-04-16 23:47 18.25895 -67.10971 37025 ft 479 kts 89°
2026-04-16 23:47 18.26258 -67.03967 37024 ft 479 kts 89°
2026-04-16 23:48 18.26589 -66.96962 37025 ft 479 kts 89°
2026-04-16 23:48 18.26937 -66.89960 37029 ft 479 kts 89°
2026-04-16 23:49 18.27297 -66.82952 37015 ft 480 kts 89°
2026-04-16 23:49 18.27653 -66.75930 37021 ft 481 kts 89°
2026-04-16 23:50 18.28004 -66.68936 37023 ft 482 kts 89°
2026-04-16 23:50 18.28357 -66.61889 37035 ft 482 kts 89°
2026-04-16 23:51 18.28708 -66.54846 37050 ft 482 kts 89°
2026-04-16 23:51 18.29049 -66.47799 37048 ft 482 kts 89°
2026-04-16 23:52 18.29383 -66.40747 37046 ft 482 kts 90°
2026-04-16 23:52 18.29726 -66.33709 37038 ft 482 kts 89°
2026-04-16 23:53 18.30067 -66.26663 37036 ft 482 kts 90°
2026-04-16 23:53 18.30409 -66.19621 37012 ft 483 kts 90°
2026-04-16 23:54 18.30740 -66.12552 37008 ft 484 kts 90°
2026-04-16 23:54 18.31060 -66.05517 37015 ft 485 kts 90°
2026-04-16 23:55 18.31386 -65.98417 37018 ft 485 kts 90°
2026-04-16 23:55 18.31659 -65.92516 37017 ft 485 kts 90°
2026-04-16 23:56 18.31986 -65.85417 37014 ft 486 kts 90°
2026-04-16 23:56 18.32308 -65.78299 37013 ft 487 kts 90°
2026-04-16 23:57 18.32624 -65.71171 37016 ft 488 kts 90°
2026-04-16 23:57 18.32945 -65.64033 37025 ft 488 kts 90°
2026-04-16 23:58 18.33264 -65.56889 37022 ft 489 kts 91°
2026-04-16 23:58 18.33577 -65.49736 37025 ft 489 kts 91°
2026-04-16 23:59 18.33885 -65.42586 37024 ft 489 kts 91°
2026-04-16 23:59 18.34196 -65.35420 37019 ft 490 kts 91°
2026-04-17 00:00 18.34503 -65.28265 37012 ft 490 kts 91°
2026-04-17 00:00 18.34806 -65.21130 37001 ft 491 kts 91°
2026-04-17 00:01 18.35104 -65.13938 37006 ft 492 kts 91°
2026-04-17 00:01 18.35402 -65.06726 36753 ft 493 kts 91°
2026-04-17 00:01 18.35480 -65.03123 36383 ft 490 kts 96°
2026-04-17 00:02 18.35138 -64.99586 35819 ft 482 kts 104°
2026-04-17 00:02 18.34558 -64.96114 35321 ft 479 kts 104°
2026-04-17 00:02 18.33987 -64.92668 34816 ft 477 kts 104°
2026-04-17 00:02 18.33426 -64.89234 34322 ft 474 kts 103°
2026-04-17 00:03 18.32873 -64.85815 33775 ft 472 kts 103°
2026-04-17 00:03 18.32326 -64.82424 33268 ft 468 kts 103°
2026-04-17 00:03 18.31796 -64.79056 32801 ft 464 kts 100°
2026-04-17 00:03 18.31730 -64.75701 32687 ft 456 kts 88°
2026-04-17 00:04 18.31952 -64.72379 32391 ft 456 kts 88°
2026-04-17 00:04 18.32172 -64.69087 31915 ft 455 kts 88°
2026-04-17 00:04 18.32395 -64.65775 31459 ft 453 kts 88°
2026-04-17 00:04 18.32620 -64.62479 30986 ft 450 kts 88°
2026-04-17 00:05 18.32844 -64.59204 30599 ft 445 kts 88°
2026-04-17 00:05 18.33067 -64.55976 30366 ft 440 kts 88°
2026-04-17 00:05 18.33284 -64.52774 30138 ft 437 kts 88°
2026-04-17 00:05 18.33496 -64.49573 29189 ft 444 kts 88°
2026-04-17 00:06 18.33716 -64.46277 28064 ft 456 kts 88°
2026-04-17 00:06 18.33941 -64.42975 27552 ft 445 kts 88°
2026-04-17 00:06 18.34161 -64.39758 26768 ft 436 kts 87°
2026-04-17 00:06 18.34376 -64.36597 25973 ft 429 kts 87°
2026-04-17 00:07 18.34588 -64.33489 25165 ft 423 kts 87°
2026-04-17 00:07 18.34797 -64.30421 24388 ft 417 kts 87°
2026-04-17 00:07 18.34998 -64.27404 23649 ft 411 kts 86°
2026-04-17 00:07 18.35194 -64.24420 22792 ft 405 kts 86°
2026-04-17 00:08 18.35387 -64.21494 21990 ft 399 kts 86°
2026-04-17 00:08 18.35575 -64.18599 21194 ft 393 kts 86°
2026-04-17 00:08 18.35760 -64.15739 20424 ft 388 kts 86°
2026-04-17 00:08 18.35944 -64.12922 19692 ft 383 kts 86°
2026-04-17 00:09 18.36125 -64.10139 18957 ft 379 kts 86°
2026-04-17 00:09 18.36306 -64.07387 18273 ft 375 kts 85°
2026-04-17 00:09 18.36486 -64.04669 17492 ft 370 kts 85°
2026-04-17 00:09 18.36664 -64.01990 16824 ft 363 kts 85°
2026-04-17 00:10 18.36837 -63.99386 16416 ft 349 kts 85°
2026-04-17 00:10 18.37001 -63.96877 16024 ft 337 kts 85°
2026-04-17 00:10 18.37158 -63.94463 15643 ft 335 kts 85°
2026-04-17 00:10 18.37316 -63.92020 15251 ft 335 kts 85°
2026-04-17 00:11 18.37475 -63.89573 14860 ft 335 kts 85°
2026-04-17 00:11 18.37632 -63.87129 14451 ft 335 kts 85°
2026-04-17 00:11 18.37790 -63.84681 14067 ft 335 kts 85°
2026-04-17 00:11 18.37950 -63.82230 13635 ft 336 kts 85°
2026-04-17 00:12 18.38109 -63.79783 13213 ft 334 kts 85°
2026-04-17 00:12 18.38264 -63.77352 12814 ft 332 kts 86°
2026-04-17 00:12 18.38416 -63.74925 12411 ft 330 kts 85°
2026-04-17 00:12 18.38566 -63.72521 12004 ft 328 kts 85°
2026-04-17 00:13 18.38716 -63.70132 11614 ft 327 kts 86°
2026-04-17 00:13 18.38613 -63.67788 11461 ft 316 kts 102°
2026-04-17 00:13 18.37825 -63.65668 11310 ft 307 kts 121°
2026-04-17 00:13 18.36451 -63.63973 11068 ft 302 kts 136°
2026-04-17 00:14 18.34946 -63.62494 10831 ft 297 kts 136°
2026-04-17 00:14 18.33448 -63.61024 10585 ft 291 kts 136°
2026-04-17 00:14 18.31981 -63.59580 10348 ft 286 kts 135°
2026-04-17 00:14 18.30539 -63.58155 10120 ft 281 kts 135°
2026-04-17 00:15 18.29130 -63.56760 9904 ft 276 kts 135°
2026-04-17 00:15 18.27731 -63.55377 9553 ft 275 kts 135°
2026-04-17 00:15 18.26338 -63.54002 9191 ft 274 kts 136°
2026-04-17 00:15 18.24947 -63.52633 8818 ft 273 kts 136°
2026-04-17 00:16 18.23562 -63.51272 8450 ft 272 kts 136°
2026-04-17 00:16 18.22181 -63.49911 8080 ft 272 kts 136°
2026-04-17 00:16 18.20804 -63.48552 7688 ft 271 kts 135°
2026-04-17 00:16 18.19428 -63.47195 7305 ft 271 kts 135°
2026-04-17 00:17 18.18052 -63.45840 6909 ft 271 kts 135°
2026-04-17 00:17 18.16678 -63.44489 6515 ft 269 kts 135°
2026-04-17 00:17 18.15334 -63.43168 6113 ft 259 kts 134°
2026-04-17 00:17 18.14043 -63.41898 5721 ft 249 kts 135°
2026-04-17 00:18 18.12805 -63.40681 5355 ft 239 kts 135°
2026-04-17 00:18 18.11611 -63.39508 5000 ft 232 kts 134°
2026-04-17 00:18 18.10445 -63.38365 4647 ft 226 kts 134°
2026-04-17 00:18 18.09303 -63.37243 4327 ft 224 kts 134°
2026-04-17 00:19 18.08195 -63.36154 4248 ft 212 kts 134°
2026-04-17 00:19 18.07141 -63.35119 4192 ft 202 kts 134°
2026-04-17 00:19 18.06128 -63.34123 4117 ft 198 kts 134°
2026-04-17 00:19 18.05126 -63.33137 4033 ft 197 kts 134°
2026-04-17 00:20 18.04131 -63.32158 3996 ft 196 kts 134°
2026-04-17 00:20 18.03140 -63.31181 3889 ft 190 kts 134°
2026-04-17 00:20 18.02221 -63.30274 3882 ft 173 kts 131°
2026-04-17 00:20 18.01648 -63.29216 3717 ft 165 kts 103°
2026-04-17 00:21 18.01587 -63.28030 3476 ft 163 kts 82°
2026-04-17 00:21 18.01812 -63.26860 3201 ft 163 kts 80°
2026-04-17 00:21 18.02010 -63.25718 2950 ft 158 kts 82°
2026-04-17 00:21 18.02180 -63.24597 2691 ft 152 kts 83°
2026-04-17 00:22 18.02476 -63.22462 2168 ft 144 kts 82°
2026-04-17 00:22 18.02619 -63.21438 2013 ft 140 kts 82°
2026-04-17 00:22 18.02762 -63.20429 1832 ft 140 kts 83°
2026-04-17 00:23 18.02895 -63.19427 1637 ft 138 kts 83°
2026-04-17 00:23 18.03029 -63.18430 1465 ft 138 kts 82°
2026-04-17 00:23 18.03163 -63.17437 1244 ft 138 kts 83°
2026-04-17 00:23 18.03308 -63.16442 956 ft 136 kts 83°
2026-04-17 00:24 18.03449 -63.15461 736 ft 135 kts 82°
2026-04-17 00:24 18.03598 -63.14470 548 ft 139 kts 81°
2026-04-17 00:24 18.03742 -63.13478 330 ft 136 kts 81°
2026-04-17 00:24 18.03867 -63.12488 155 ft 137 kts 80°
2026-04-17 00:25 18.03997 -63.11521 27 ft 125 kts 79°
2026-04-17 00:25 18.04116 -63.10738 21 ft 84 kts 81°
2026-04-17 00:25 18.04172 -63.10329 21 ft 48 kts 81°
2026-04-17 00:25 18.04211 -63.10055 19 ft 23 kts 79°
2026-04-17 00:26 18.04238 -63.09947 20 ft 13 kts 54°
2026-04-17 00:26 18.04296 -63.09869 20 ft 11 kts 67°
2026-04-17 00:26 18.04250 -63.09836 23 ft 8 kts 209°
2026-04-17 00:26 18.04234 -63.09898 21 ft 14 kts 263°
2026-04-17 00:27 18.04214 -63.10054 21 ft 25 kts 262°
2026-04-17 00:27 18.04190 -63.10239 19 ft 26 kts 262°
2026-04-17 00:27 18.04162 -63.10428 20 ft 27 kts 261°
2026-04-17 00:27 18.04132 -63.10624 21 ft 27 kts 261°
2026-04-17 00:28 18.04113 -63.10758 22 ft 18 kts 261°
2026-04-17 00:28 18.04091 -63.10909 21 ft 21 kts 261°
2026-04-17 00:28 18.04070 -63.11055 26 ft 19 kts 262°
2026-04-17 00:28 18.04094 -63.11155 22 ft 12 kts 329°
2026-04-17 00:29 18.04144 -63.11181 23 ft 6 kts 292°
2026-04-17 00:29 18.04140 -63.11239 23 ft 12 kts 261°
2026-04-17 00:29 18.04178 -63.11304 21 ft 11 kts 349°
2026-04-17 00:29 18.04259 -63.11303 21 ft 13 kts 22°
2026-04-17 00:30 18.04320 -63.11289 21 ft 4 kts 345°
2026-04-17 00:30 18.04342 -63.11294 21 ft 0 kts 351°